EZY67AR GCTS-LPPT

Flight info

Callsign EZY67AR
Flight time 1h 48m
Altitude 36000
Route VASTO1E VASTO UN858 AKUDA DCT VATZI VATZI2A
Aircraft A320/M-V/N

Departure

Time 2026-05-04 15:11
Airport Tenerife Sur Airport (GCTS)

Arrival

Time 2026-05-04 16:59
Airport Lisbon Humberto Delgado Airport (LPPT)
Time Latitude Longitude Altitude Speed Heading
2026-05-04 14:39 28.04731 -16.57629 201 ft 0 kts 339°
2026-05-04 15:01 28.04721 -16.57625 213 ft 4 kts 336°
2026-05-04 15:01 28.04697 -16.57611 206 ft 4 kts 325°
2026-05-04 15:02 28.04677 -16.57591 212 ft 4 kts 309°
2026-05-04 15:02 28.04664 -16.57566 214 ft 4 kts 272°
2026-05-04 15:02 28.04665 -16.57554 215 ft 0 kts 249°
2026-05-04 15:05 28.04654 -16.57586 214 ft 12 kts 250°
2026-05-04 15:05 28.04595 -16.57710 202 ft 16 kts 201°
2026-05-04 15:05 28.04532 -16.57684 204 ft 9 kts 157°
2026-05-04 15:06 28.04470 -16.57719 208 ft 15 kts 245°
2026-05-04 15:06 28.04423 -16.57851 204 ft 22 kts 248°
2026-05-04 15:06 28.04359 -16.58033 202 ft 28 kts 248°
2026-05-04 15:07 28.04228 -16.58416 204 ft 24 kts 248°
2026-05-04 15:07 28.04176 -16.58589 205 ft 22 kts 250°
2026-05-04 15:07 28.04121 -16.58748 196 ft 21 kts 249°
2026-05-04 15:07 28.04070 -16.58894 202 ft 20 kts 250°
2026-05-04 15:08 28.04025 -16.58991 192 ft 0 kts 223°
2026-05-04 15:09 28.03990 -16.58997 194 ft 12 kts 167°
2026-05-04 15:10 28.03924 -16.58742 199 ft 34 kts 70°
2026-05-04 15:10 28.04101 -16.58234 202 ft 101 kts 68°
2026-05-04 15:10 28.04883 -16.56167 733 ft 160 kts 66°
2026-05-04 15:11 28.05405 -16.55039 1442 ft 164 kts 60°
2026-05-04 15:11 28.05862 -16.53866 2226 ft 162 kts 65°
2026-05-04 15:11 28.06243 -16.52683 2896 ft 161 kts 70°
2026-05-04 15:11 28.06629 -16.51478 3466 ft 167 kts 56°
2026-05-04 15:12 28.07442 -16.50416 3756 ft 190 kts 45°
2026-05-04 15:12 28.08428 -16.49285 4078 ft 214 kts 44°
2026-05-04 15:12 28.09533 -16.48022 4415 ft 237 kts 45°
2026-05-04 15:12 28.10750 -16.46628 4771 ft 261 kts 45°
2026-05-04 15:13 28.12067 -16.45112 5326 ft 275 kts 44°
2026-05-04 15:13 28.13406 -16.43559 6063 ft 282 kts 44°
2026-05-04 15:13 28.14796 -16.41942 6759 ft 290 kts 43°
2026-05-04 15:13 28.16219 -16.40286 7467 ft 296 kts 44°
2026-05-04 15:14 28.17667 -16.38599 8233 ft 300 kts 44°
2026-05-04 15:14 28.19143 -16.36883 8969 ft 305 kts 44°
2026-05-04 15:14 28.20614 -16.35169 9724 ft 310 kts 44°
2026-05-04 15:14 28.22136 -16.33396 10349 ft 319 kts 44°
2026-05-04 15:15 28.23747 -16.31521 10565 ft 343 kts 44°
2026-05-04 15:15 28.25470 -16.29517 10797 ft 364 kts 44°
2026-05-04 15:15 28.27260 -16.27429 11372 ft 372 kts 44°
2026-05-04 15:16 28.30898 -16.23176 12621 ft 383 kts 43°
2026-05-04 15:16 28.32775 -16.20983 13236 ft 389 kts 43°
2026-05-04 15:16 28.36601 -16.16505 14383 ft 400 kts 43°
2026-05-04 15:17 28.38546 -16.14223 14965 ft 404 kts 44°
2026-05-04 15:17 28.42489 -16.09597 16140 ft 411 kts 44°
2026-05-04 15:17 28.44485 -16.07256 16725 ft 414 kts 44°
2026-05-04 15:18 28.46493 -16.04896 17289 ft 417 kts 44°
2026-05-04 15:18 28.48518 -16.02513 17853 ft 421 kts 44°
2026-05-04 15:18 28.50565 -16.00105 18394 ft 424 kts 44°
2026-05-04 15:19 28.54673 -15.95280 19338 ft 431 kts 44°
2026-05-04 15:19 28.56771 -15.92818 19795 ft 435 kts 44°
2026-05-04 15:19 28.61008 -15.87825 20721 ft 441 kts 44°
2026-05-04 15:20 28.63144 -15.85300 21185 ft 444 kts 44°
2026-05-04 15:20 28.65293 -15.82755 21627 ft 448 kts 44°
2026-05-04 15:20 28.67463 -15.80188 22059 ft 451 kts 44°
2026-05-04 15:20 28.69647 -15.77606 22484 ft 454 kts 44°
2026-05-04 15:21 28.71848 -15.75006 22907 ft 458 kts 43°
2026-05-04 15:21 28.74064 -15.72391 23321 ft 461 kts 43°
2026-05-04 15:21 28.78545 -15.67094 24053 ft 467 kts 43°
2026-05-04 15:22 28.80804 -15.64414 24394 ft 470 kts 43°
2026-05-04 15:22 28.83075 -15.61716 24728 ft 473 kts 43°
2026-05-04 15:22 28.87654 -15.56266 25380 ft 478 kts 43°
2026-05-04 15:23 28.89963 -15.53518 25703 ft 481 kts 43°
2026-05-04 15:23 28.92287 -15.50757 26035 ft 484 kts 43°
2026-05-04 15:23 28.94621 -15.47983 26383 ft 485 kts 43°
2026-05-04 15:23 28.96965 -15.45195 26704 ft 488 kts 43°
2026-05-04 15:24 29.01654 -15.39608 27319 ft 493 kts 43°
2026-05-04 15:24 29.06420 -15.33917 27934 ft 498 kts 43°
2026-05-04 15:25 29.08819 -15.31052 28240 ft 501 kts 43°
2026-05-04 15:25 29.11233 -15.28164 28538 ft 503 kts 43°
2026-05-04 15:25 29.13653 -15.25265 28826 ft 505 kts 43°
2026-05-04 15:26 29.18531 -15.19417 29360 ft 510 kts 43°
2026-05-04 15:26 29.20987 -15.16470 29630 ft 513 kts 43°
2026-05-04 15:26 29.25931 -15.10532 30165 ft 517 kts 43°
2026-05-04 15:27 29.28413 -15.07544 30387 ft 519 kts 43°
2026-05-04 15:27 29.33416 -15.01518 30795 ft 524 kts 43°
2026-05-04 15:28 29.38445 -14.95455 31335 ft 525 kts 43°
2026-05-04 15:28 29.40955 -14.92422 31597 ft 525 kts 43°
2026-05-04 15:28 29.45987 -14.86335 32123 ft 526 kts 43°
2026-05-04 15:29 29.48508 -14.83285 32386 ft 527 kts 43°
2026-05-04 15:30 29.58617 -14.71028 33509 ft 528 kts 43°
2026-05-04 15:30 29.66149 -14.61873 34346 ft 527 kts 43°
2026-05-04 15:31 29.71187 -14.55739 34818 ft 527 kts 43°
2026-05-04 15:31 29.73704 -14.52665 35042 ft 528 kts 43°
2026-05-04 15:32 29.81266 -14.43426 35571 ft 531 kts 43°
2026-05-04 15:32 29.85495 -14.38260 35762 ft 535 kts 43°
2026-05-04 15:33 29.90606 -14.31993 36049 ft 538 kts 43°
2026-05-04 15:34 29.98370 -14.22457 36093 ft 549 kts 43°
2026-05-04 15:34 30.06230 -14.12782 36092 ft 551 kts 43°
2026-05-04 15:35 30.14086 -14.03085 36088 ft 551 kts 43°
2026-05-04 15:36 30.21942 -13.93370 36125 ft 551 kts 43°
2026-05-04 15:36 30.27171 -13.86883 36115 ft 550 kts 43°
2026-05-04 15:37 30.32358 -13.80452 36105 ft 549 kts 43°
2026-05-04 15:37 30.37599 -13.73938 36103 ft 549 kts 43°
2026-05-04 15:38 30.42764 -13.67498 36098 ft 549 kts 43°
2026-05-04 15:38 30.47956 -13.61005 36102 ft 549 kts 43°
2026-05-04 15:39 30.53591 -13.55162 36130 ft 538 kts 28°
2026-05-04 15:40 30.62875 -13.47840 36110 ft 538 kts 28°
2026-05-04 15:40 30.69044 -13.42912 36109 ft 538 kts 29°
2026-05-04 15:41 30.75201 -13.37980 36110 ft 537 kts 29°
2026-05-04 15:41 30.81361 -13.33046 36109 ft 538 kts 29°
2026-05-04 15:42 30.87526 -13.28115 36129 ft 537 kts 29°
2026-05-04 15:42 30.93681 -13.23185 36122 ft 537 kts 28°
2026-05-04 15:43 30.99849 -13.18277 36121 ft 537 kts 28°
2026-05-04 15:43 31.06023 -13.13370 36111 ft 537 kts 28°
2026-05-04 15:44 31.12196 -13.08462 36118 ft 536 kts 28°
2026-05-04 15:44 31.18336 -13.03573 36107 ft 532 kts 28°
2026-05-04 15:45 31.24444 -12.98680 36105 ft 532 kts 28°
2026-05-04 15:45 31.30542 -12.93794 36104 ft 531 kts 28°
2026-05-04 15:46 31.36646 -12.88903 36105 ft 531 kts 28°
2026-05-04 15:46 31.42744 -12.84009 36121 ft 532 kts 29°
2026-05-04 15:47 31.48841 -12.79110 36118 ft 531 kts 29°
2026-05-04 15:47 31.54890 -12.74230 36118 ft 531 kts 29°
2026-05-04 15:48 31.60969 -12.69325 36119 ft 530 kts 29°
2026-05-04 15:48 31.70073 -12.61955 36118 ft 530 kts 29°
2026-05-04 15:49 31.76145 -12.57037 36131 ft 530 kts 29°
2026-05-04 15:49 31.82208 -12.52117 36126 ft 529 kts 29°
2026-05-04 15:50 31.88261 -12.47205 36126 ft 528 kts 29°
2026-05-04 15:50 31.94310 -12.42284 36127 ft 528 kts 29°
2026-05-04 15:51 32.00358 -12.37351 36126 ft 528 kts 29°
2026-05-04 15:51 32.06393 -12.32426 36134 ft 527 kts 29°
2026-05-04 15:52 32.12415 -12.27517 36129 ft 526 kts 29°
2026-05-04 15:52 32.18426 -12.22614 36125 ft 525 kts 29°
2026-05-04 15:53 32.24428 -12.17708 36120 ft 524 kts 29°
2026-05-04 15:53 32.30387 -12.12828 36151 ft 524 kts 30°
2026-05-04 15:54 32.30517 -12.12721 36151 ft 524 kts 30°
2026-05-04 15:55 32.30688 -12.12581 36377 ft 524 kts 29°
2026-05-04 15:55 32.33684 -12.10154 36300 ft 516 kts 30°
2026-05-04 15:55 32.39629 -12.05290 36086 ft 519 kts 30°
2026-05-04 15:56 32.45239 -11.99983 36149 ft 531 kts 51°
2026-05-04 15:56 32.49425 -11.92783 36109 ft 526 kts 38°
2026-05-04 15:57 32.52376 -11.90349 36115 ft 511 kts 18°
2026-05-04 15:57 32.55670 -11.88874 36106 ft 506 kts 12°
2026-05-04 15:57 32.62336 -11.86067 36138 ft 511 kts 19°
2026-05-04 15:58 32.65445 -11.83953 36129 ft 519 kts 30°
2026-05-04 15:58 32.68417 -11.81507 36130 ft 520 kts 30°
2026-05-04 15:58 32.74348 -11.76591 36121 ft 520 kts 30°
2026-05-04 15:59 32.80275 -11.71665 36113 ft 520 kts 30°
2026-05-04 15:59 32.86208 -11.66727 36117 ft 520 kts 30°
2026-05-04 16:00 32.92090 -11.61816 36109 ft 520 kts 30°
2026-05-04 16:00 32.98010 -11.56875 36114 ft 520 kts 30°
2026-05-04 16:01 33.03979 -11.51899 36112 ft 520 kts 30°
2026-05-04 16:01 33.09859 -11.46977 36110 ft 520 kts 30°
2026-05-04 16:02 33.15781 -11.41997 36129 ft 521 kts 31°
2026-05-04 16:03 33.24658 -11.34502 36132 ft 521 kts 31°
2026-05-04 16:03 33.30560 -11.29493 36129 ft 520 kts 31°
2026-05-04 16:04 33.36450 -11.24461 36125 ft 520 kts 31°
2026-05-04 16:04 33.45256 -11.16966 36149 ft 520 kts 31°
2026-05-04 16:05 33.51147 -11.11953 36138 ft 519 kts 31°
2026-05-04 16:06 33.59981 -11.04391 36133 ft 519 kts 31°
2026-05-04 16:07 33.71743 -10.94291 36129 ft 519 kts 31°
2026-05-04 16:08 33.83506 -10.84173 36127 ft 520 kts 31°
2026-05-04 16:09 33.98182 -10.71493 36124 ft 521 kts 31°
2026-05-04 16:10 34.09942 -10.61269 36136 ft 521 kts 31°
2026-05-04 16:11 34.21729 -10.51029 36127 ft 522 kts 31°
2026-05-04 16:12 34.39366 -10.35596 36133 ft 523 kts 31°
2026-05-04 16:13 34.51141 -10.25252 36129 ft 523 kts 31°
2026-05-04 16:14 34.62918 -10.14855 36151 ft 523 kts 30°
2026-05-04 16:16 34.77636 -10.01937 36134 ft 523 kts 30°
2026-05-04 16:17 34.92348 -9.88916 36146 ft 521 kts 30°
2026-05-04 16:18 35.04078 -9.78528 36131 ft 520 kts 30°
2026-05-04 16:19 35.18656 -9.65539 36146 ft 519 kts 30°
2026-05-04 16:20 35.32219 -9.53404 36129 ft 518 kts 30°
2026-05-04 16:22 35.46725 -9.40374 36126 ft 516 kts 29°
2026-05-04 16:23 35.64109 -9.24683 36124 ft 517 kts 30°
2026-05-04 16:25 35.81487 -9.08876 36124 ft 518 kts 30°
2026-05-04 16:26 36.02844 -8.94662 36123 ft 478 kts 355°
2026-05-04 16:28 36.19376 -8.93799 36145 ft 475 kts 354°
2026-05-04 16:29 36.42497 -8.92632 36132 ft 476 kts 354°
2026-05-04 16:31 36.59067 -8.91757 36113 ft 476 kts 354°
2026-05-04 16:32 36.77557 -8.89799 38710 ft 407 kts 358°
2026-05-04 16:33 36.83244 -8.89392 38195 ft 411 kts 347°
2026-05-04 16:33 36.89057 -8.89887 36777 ft 438 kts 348°
2026-05-04 16:34 36.95346 -8.90014 36074 ft 465 kts 354°
2026-05-04 16:34 36.98595 -8.89854 35688 ft 468 kts 355°
2026-05-04 16:35 37.08335 -8.89082 34590 ft 468 kts 356°
2026-05-04 16:35 37.18084 -8.88509 32556 ft 467 kts 355°
2026-05-04 16:36 37.21331 -8.88356 31676 ft 467 kts 355°
2026-05-04 16:36 37.27810 -8.88035 30446 ft 467 kts 355°
2026-05-04 16:37 37.34327 -8.87687 29261 ft 470 kts 356°
2026-05-04 16:37 37.37603 -8.87510 28659 ft 472 kts 356°
2026-05-04 16:37 37.44191 -8.87156 27512 ft 475 kts 356°
2026-05-04 16:38 37.50829 -8.86794 26394 ft 480 kts 356°
2026-05-04 16:39 37.60843 -8.86843 24786 ft 475 kts 342°
2026-05-04 16:39 37.67121 -8.89256 23792 ft 471 kts 337°
2026-05-04 16:40 37.73286 -8.91767 22624 ft 465 kts 337°
2026-05-04 16:40 37.79392 -8.94262 21479 ft 457 kts 337°
2026-05-04 16:41 37.85409 -8.96717 20395 ft 451 kts 338°
2026-05-04 16:41 37.94260 -9.00323 18794 ft 441 kts 338°
2026-05-04 16:42 38.02924 -9.03887 17099 ft 431 kts 338°
2026-05-04 16:43 38.08567 -9.06272 15970 ft 423 kts 338°
2026-05-04 16:43 38.14103 -9.08623 14896 ft 417 kts 340°
2026-05-04 16:43 38.16980 -9.09115 14356 ft 421 kts 360°
2026-05-04 16:44 38.25975 -9.00011 12118 ft 424 kts 54°
2026-05-04 16:45 38.29210 -8.93936 11014 ft 405 kts 48°
2026-05-04 16:46 38.36167 -8.91393 10122 ft 340 kts 333°
2026-05-04 16:46 38.39170 -8.95402 10084 ft 298 kts 302°
2026-05-04 16:47 38.39801 -9.00116 10082 ft 271 kts 254°
2026-05-04 16:47 38.37885 -9.04336 9264 ft 277 kts 239°
2026-05-04 16:48 38.34782 -9.10537 7851 ft 278 kts 251°
2026-05-04 16:48 38.34296 -9.12906 7366 ft 276 kts 261°
2026-05-04 16:49 38.33580 -9.17632 7100 ft 268 kts 261°
2026-05-04 16:49 38.32879 -9.22230 7087 ft 257 kts 261°
2026-05-04 16:50 38.33104 -9.26386 7104 ft 219 kts 284°
2026-05-04 16:50 38.34216 -9.29691 7107 ft 202 kts 319°
2026-05-04 16:51 38.36913 -9.30475 7104 ft 214 kts 12°
2026-05-04 16:51 38.38371 -9.30025 7102 ft 216 kts 10°
2026-05-04 16:51 38.41294 -9.29099 7100 ft 216 kts
2026-05-04 16:52 38.44231 -9.28207 7105 ft 217 kts
2026-05-04 16:52 38.45697 -9.27768 7100 ft 215 kts 10°
2026-05-04 16:53 38.48610 -9.26890 6745 ft 215 kts
2026-05-04 16:53 38.52930 -9.25589 5977 ft 211 kts
2026-05-04 16:54 38.54360 -9.25155 5722 ft 210 kts 11°
2026-05-04 16:55 38.60321 -9.23101 4685 ft 230 kts 18°
2026-05-04 16:55 38.63217 -9.21552 4451 ft 229 kts 19°
2026-05-04 16:56 38.66256 -9.19934 3430 ft 241 kts 19°
2026-05-04 16:56 38.70891 -9.17507 2096 ft 234 kts 18°
2026-05-04 16:57 38.72241 -9.16670 1658 ft 196 kts 22°
2026-05-04 16:57 38.74470 -9.15535 846 ft 156 kts 17°
2026-05-04 16:58 38.77176 -9.14119 347 ft 121 kts 16°
2026-05-04 16:58 38.77808 -9.13772 346 ft 74 kts 23°
2026-05-04 16:59 38.78222 -9.13530 353 ft 23 kts 29°
2026-05-04 17:00 38.78091 -9.13434 350 ft 14 kts 167°
2026-05-04 17:00 38.77722 -9.13335 347 ft 19 kts 167°
2026-05-04 17:01 38.77484 -9.13295 355 ft 15 kts 167°
2026-05-04 17:01 38.77246 -9.13237 351 ft 7 kts 166°
2026-05-04 17:02 38.77251 -9.13170 353 ft 0 kts 72°